Weather History for Hobbs, NM

Change the Weather History Date:

Sunday, April 7, 2013

  Actual Average Record
Temperature  
Mean Temperature 65 °F -  
Max Temperature 84 °F 71 °F 88 °F (1952)
Min Temperature 46 °F 43 °F 26 °F (2007)
Growing Degree Days 15 (Base 50)    
Moisture  
Dew Point 24 °F    
Average Humidity 26    
Maximum Humidity 62    
Minimum Humidity 10    
Precipitation  
Precipitation 0.00 in - - ()
Sea Level Pressure  
Sea Level Pressure 29.80 in    
Wind  
Wind Speed 4 mph (SSW)    
Max Wind Speed 24 mph    
Max Gust Speed 31 mph    
Visibility 10 miles    
Events      
Averages and records for this station are not official NWS values.
T = Trace of Precipitation, MM = Missing Value Source: NWS Daily Summary

Daily Weather History Graph

Daily Weather History Graph

Search for Another Location

Airport:

Trip Planner

Search our weather history database for the weather conditions in past years. The results will help you decide how hot, cold, wet, or windy it might be!

Date:

Astronomy

Apr. 07, 2013 Rise Set
Actual Time 6:32 AM MDT 7:17 PM MDT
Civil Twilight 6:07 AM MDT 7:42 PM MDT
Nautical Twilight 5:38 AM MDT 8:11 PM MDT
Astronomical Twilight 5:08 AM MDT 8:42 PM MDT
Moon 4:43 AM MDT (4/7) 4:58 PM MDT (4/7)
Length of Visible Light 13h 34m
Length of Day
12h 44m
Waning Crescent, 8% of the Moon is Illuminated
Apr 7
Waning Crescent
Apr 10
New
Apr 18
First Quarter
Apr 25
Full
May 2
Last Quarter

Hourly Weather History & Observations

Time (MDT) Temp. Windchill Dew Point Humidity Pressure Visibility Wind Dir Wind Speed Gust Speed Precip Events Conditions
12:15 AM 55.4 °F - 19.4 °F 25% 29.88 in 10.0 mi Calm Calm - N/A   Clear
12:35 AM 55.4 °F - 24.8 °F 31% 29.88 in 10.0 mi Calm Calm - N/A   Clear
12:55 AM 55.4 °F - 26.6 °F 33% 29.88 in 10.0 mi Calm Calm - N/A   Clear
1:15 AM 53.6 °F - 26.6 °F 35% 29.87 in 10.0 mi ENE 3.5 mph - N/A   Clear
1:35 AM 53.6 °F - 28.4 °F 38% 29.87 in 10.0 mi Calm Calm - N/A   Clear
1:55 AM 53.6 °F - 28.4 °F 38% 29.86 in 10.0 mi Calm Calm - N/A   Clear
2:15 AM 51.8 °F - 30.2 °F 44% 29.86 in 10.0 mi Calm Calm - N/A   Clear
2:35 AM 51.8 °F - 28.4 °F 41% 29.86 in 10.0 mi Calm Calm - N/A   Clear
2:55 AM 51.8 °F - 26.6 °F 38% 29.85 in 10.0 mi Calm Calm - N/A   Clear
3:15 AM 50.0 °F - 23.0 °F 35% 29.84 in 10.0 mi Calm Calm - N/A   Clear
3:35 AM 50.0 °F - 23.0 °F 35% 29.84 in 10.0 mi Calm Calm - N/A   Clear
3:55 AM 50.0 °F - 26.6 °F 40% 29.84 in 10.0 mi Calm Calm - N/A   Clear
4:15 AM 51.8 °F - 30.2 °F 44% 29.83 in 10.0 mi South 5.8 mph - N/A   Clear
4:35 AM 50.0 °F - 30.2 °F 47% 29.83 in 10.0 mi Calm Calm - N/A   Clear
4:55 AM 50.0 °F - 32.0 °F 50% 29.83 in 10.0 mi Calm Calm - N/A   Clear
5:50 AM 48.2 °F - 35.6 °F 62% 29.83 in 10.0 mi SSE 4.6 mph - N/A   Clear
6:50 AM 46.4 °F 43.5 °F 33.8 °F 62% 29.85 in 10.0 mi South 5.8 mph - N/A   Clear
9:50 AM 75.2 °F - 21.2 °F 13% 29.87 in 10.0 mi WSW 13.8 mph - N/A   Clear
10:50 AM 77.0 °F - 23.0 °F 13% 29.87 in 10.0 mi SW 16.1 mph 20.7 mph N/A   Clear
11:50 AM 80.6 °F - 23.0 °F 12% 29.86 in 10.0 mi SW 11.5 mph 18.4 mph N/A   Clear
12:50 PM 82.4 °F - 24.8 °F 12% 29.82 in 10.0 mi WSW 11.5 mph 23.0 mph N/A   Clear
1:50 PM 84.2 °F - 24.8 °F 11% 29.78 in 10.0 mi SW 15.0 mph 27.6 mph N/A   Clear
2:50 PM 84.2 °F - 23.0 °F 11% 29.76 in 10.0 mi SW 24.2 mph 31.1 mph N/A   Clear
3:50 PM 84.2 °F - 23.0 °F 11% 29.73 in 10.0 mi WSW 20.7 mph 31.1 mph N/A   Clear
4:50 PM 84.2 °F - 23.0 °F 11% 29.71 in 10.0 mi SW 21.9 mph 29.9 mph N/A   Clear
6:15 PM 82.4 °F - 21.2 °F 10% 29.72 in 10.0 mi SW 21.9 mph - N/A   Clear
6:35 PM 80.6 °F - 19.4 °F 10% 29.72 in 10.0 mi SW 18.4 mph 24.2 mph N/A   Clear
6:55 PM 78.8 °F - 19.4 °F 11% 29.72 in 10.0 mi SSW 12.7 mph 20.7 mph N/A   Clear
7:15 PM 77.0 °F - 19.4 °F 12% 29.72 in 10.0 mi SSW 11.5 mph - N/A   Clear
7:35 PM 73.4 °F - 19.4 °F 13% 29.73 in 10.0 mi SSW 9.2 mph - N/A   Clear
7:55 PM 71.6 °F - 19.4 °F 14% 29.73 in 10.0 mi SSW 6.9 mph - N/A   Clear
8:15 PM 69.8 °F - 19.4 °F 15% 29.74 in 10.0 mi Calm Calm - N/A   Clear
8:35 PM 66.2 °F - 19.4 °F 17% 29.74 in 10.0 mi SSW 4.6 mph - N/A   Clear
8:55 PM 66.2 °F - 19.4 °F 17% 29.75 in 10.0 mi Calm Calm - N/A   Clear
9:15 PM 64.4 °F - 19.4 °F 18% 29.75 in 10.0 mi Calm Calm - N/A   Clear
9:35 PM 60.8 °F - 19.4 °F 20% 29.76 in 10.0 mi SSW 3.5 mph - N/A   Clear
9:55 PM 60.8 °F - 19.4 °F 20% 29.76 in 10.0 mi Calm Calm - N/A   Clear
10:15 PM 59.0 °F - 19.4 °F 22% 29.77 in 10.0 mi Calm Calm - N/A   Clear
10:35 PM 57.2 °F - 19.4 °F 23% 29.77 in 10.0 mi Calm Calm - N/A   Clear
10:55 PM 57.2 °F - 19.4 °F 23% 29.76 in 10.0 mi Calm Calm - N/A   Clear
11:15 PM 59.0 °F - 19.4 °F 22% 29.75 in 10.0 mi WSW 6.9 mph - N/A   Clear
11:35 PM 62.6 °F - 19.4 °F 19% 29.76 in 10.0 mi South 6.9 mph 17.3 mph N/A   Clear
11:55 PM 62.6 °F - 19.4 °F 19% 29.75 in 10.0 mi Calm Calm - N/A   Clear